Regional Weather Roundup
Issued by NWS

Home | Current Version | Previous Version | Text Only | Print | Product List | Glossary On
Versions: 1 2 3 4 5 6 7 8 9 10 11 12 13 14 15 16 17 18 19 20 21 22 23 24 25 26 27 28 29 30 31 32 33 34 35 36 37 38 39 40 41 42 43 44 45 46 47 48 49 50
000
ASUS43 KMPX 070010
RWRMN
WEATHER ROUNDUP FOR MINNESOTA
NATIONAL WEATHER SERVICE TWIN CITIES/CHANHASSEN MN
700 PM CDT MON JUL 06 2015


NOTE: "FAIR" INDICATES FEW OR NO CLOUDS BELOW 12,000 FEET WITH NO
SIGNIFICANT WEATHER AND/OR OBSTRUCTIONS TO VISIBILITY. N/A MEANS
CURRENT SKY AND/OR WEATHER CONDITIONS ARE NOT AVAILABLE.

MNZ060>063-068>070-070100-
   Twin Cities Metro

CITY           SKY/WX    TMP DP  RH WIND       PRES   REMARKS
TWIN CITIES    PTSUNNY   71  55  56 NW14      29.95R SMOKE
6HR MIN TEMP:  64; 6HR MAX TEMP:  73; 6HR PCP: TRACE;

ST PAUL        PTSUNNY   71  57  61 N12       29.94S HAZE
CRYSTAL        MOSUNNY   74  55  51 NW10      29.93S HAZE
BLAINE         PTSUNNY   72  57  60 N12       29.95S
LAKEVILLE      MOSUNNY   68  57  68 N8        29.95S HAZE
EDEN PRAIRIE   MOSUNNY   72  56  57 N9        29.94S HAZE
6HR MIN TEMP:  65; 6HR MAX TEMP:  73; 6HR PCP:  0.01;

SOUTH ST PAUL  MOSUNNY   71  57  60 N10       29.94S HAZE
LAKE ELMO      FAIR      70  59  68 NW6       29.95F HAZE
$$
MNZ001>005-007-008-013>017-022>024-027-028-070100-
   Northwest Minnesota

CITY           SKY/WX    TMP DP  RH WIND       PRES   REMARKS
BEMIDJI        CLOUDY    59  46  62 NW13      30.07S
HALLOCK        MOSUNNY   63  46  55 N10       30.11S
ROSEAU         CLOUDY    59  48  67 NW9       30.10S
WARROAD        CLOUDY    61  48  63 NW10      30.09S
THIEF RVR FALL CLOUDY    61  45  55 NW13      30.11S
CROOKSTON      MOSUNNY   63  46  55 N16G23    30.12S
FOSSTON        CLOUDY    57  45  62 NW9       30.11S
DETROIT LAKES  MOSUNNY   63  45  51 N10G23    30.10F
MOORHEAD       PTSUNNY   64  48  55 N15       30.10F
PARK RAPIDS    CLOUDY    61  43  51 N15G23    30.07S
MAHNOMEN       CLOUDY    62  45  54 N15G22    30.09F
$$
MNZ006-009>011-018-025>026-070100-
   North Central Minnesota

CITY           SKY/WX    TMP DP  RH WIND       PRES   REMARKS
BAUDETTE       CLOUDY    59  44  57 N7        30.06S
FLAG ISLAND    CLOUDY    61  45  55 N10       30.06F
INTL FALLS     CLOUDY    58  43  57 N13       30.05R
6HR MIN TEMP:  58; 6HR MAX TEMP:  64;

WASKISH        CLOUDY    59  46  63 N8G17     30.07R
BIG FORK       CLOUDY    61  46  59 N3        30.04S
LONGVILLE      CLOUDY    59  46  63 NW6       30.05S
GRAND RAPIDS   CLOUDY    61  45  55 NW15      30.03S
CRANE LAKE     CLOUDY    55  45  67 N7        30.04R
COOK           CLOUDY    59  45  58 N6        30.02S
WALKER         CLOUDY    58  46  63 N9        30.06S
$$
MNZ012-019>021-037-070100-
   Northeast Minnesota

CITY           SKY/WX    TMP DP  RH WIND       PRES   REMARKS
DULUTH         PTSUNNY   63  47  55 N14G20    29.96R
6HR MIN TEMP:  62; 6HR MAX TEMP:  68; 6HR PCP:  0.02;

ELY            CLOUDY    57  46  67 NW12      29.99R
HIBBING        CLOUDY    60  44  55 NW15      30.01R
DULUTH HARBOR    N/A     68  54  60 N17       29.95R
TWO HARBORS    MOSUNNY   66  54  63 N5        29.93S
SILVER BAY     SUNNY     64  50  59 NW6       29.93R
GRAND MARAIS     N/A     65  53  65 VRB5      29.91R
G MARAIS ARPRT SUNNY     57  45  62 NW6G16    29.94S
$$
MNZ029>031-032-039>041-046>048-054>057-064-070100-
   West Central Minnesota

CITY           SKY/WX    TMP DP  RH WIND       PRES   REMARKS
FERGUS FALLS   SUNNY     64  46  52 N14G29    30.08F
WHEATON        SUNNY     64  48  55 N13G24    30.09F
MORRIS         MOSUNNY   66  48  52 N22G28    30.06F
ALEXANDRIA     MOSUNNY   63  45  51 N18G30    30.07S
ELBOW LAKE     FAIR      64  47  54 N14G25    30.07F
WADENA         PTSUNNY   61  45  55 N12G18    30.07S
GLENWOOD       SUNNY     64  45  48 NW18G26   30.06S
APPLETON       SUNNY     70  46  43 N18G28    30.06S
BENSON         SUNNY     66  45  45 NE20G30   30.05F
ORTONVILLE     SUNNY     68  48  49 N18       30.06F
MADISON        SUNNY     68  48  49 N17G24    30.06S
WILLMAR        FAIR      70  50  49 N25G31    30.04S
$$
MNZ033>034-036-042>043-049>051-058-059-070100-
   Central Minnesota

CITY           SKY/WX    TMP DP  RH WIND       PRES   REMARKS
ST CLOUD       MOSUNNY   66  48  52 N17G24    29.99R
6HR MIN TEMP:  66; 6HR MAX TEMP:  75;

SAUK CENTRE    MOCLDY    63  46  53 N20G28    30.04S
PAYNESVILLE    MOSUNNY   64  47  54 NW15G21   30.03S
AITKIN         CLOUDY    63  48  59 NW9G21    30.01S
PINE RIVER     CLOUDY    61  46  59 N16G22    30.08S
BRAINERD       CLOUDY    61  46  57 N12       30.04R
STAPLES        PTSUNNY   59  45  58 N15       30.06F
LONG PRAIRIE   PTSUNNY   61  45  55 NW13G21   30.06R
LITTLE FALLS   SUNNY     63  43  48 N12G18    30.04R
LITCHFIELD     SUNNY     70  50  49 NW18G25   30.01R
BUFFALO        SUNNY     70  50  49 NW15G21   29.98S
MAPLE LAKE     SUNNY     68  53  60 NW10G24   30.00R
$$
MNZ037-044-045-052-053-070100-
   East Central Minnesota

CITY           SKY/WX    TMP DP  RH WIND       PRES   REMARKS
PRINCETON      SUNNY     70  52  52 NW14      29.98R
MORA           SUNNY     64  50  59 N13G22    30.00R
CAMBRIDGE      SUNNY     70  54  56 NW14G20   29.95R
RUSH CITY      MOSUNNY   68  53  59 NW13G18   29.96R
MOOSE LAKE     MOSUNNY   64  48  55 N8        29.96R
HINCKLEY       FAIR      66  52  59 NW12G23   29.96S
CLOQUET        PTSUNNY   63  46  55 NW10G21   29.98R
MCGREGOR       CLOUDY    63  45  51 NW15G23   30.02R
$$
MNZ071>073-080-081-089-090-097-098-070100-
   Southwest Minnesota

CITY           SKY/WX    TMP DP  RH WIND       PRES   REMARKS
GRANITE FALLS  SUNNY     67  49  52 NW20G26   30.06R
CANBY          SUNNY     67  51  54 N13G24    30.07S
MARSHALL       SUNNY     66  48  52 N20G28    30.05R
REDWOOD FALLS  SUNNY     69  50  50 N17G30    30.01R
OLIVIA         SUNNY     68  48  49 NW17G25   30.02R
PIPESTONE      MOSUNNY   68  54  60 N15G24    30.07R
WINDOM         SUNNY     70  54  56 N20G28    30.02R
WORTHINGTON    SUNNY     68  52  56 N18       30.04R
JACKSON        MOSUNNY   70  57  64 VRB12G17  30.01R
TRACY          SUNNY     67  54  61 N22G30    30.05R
SLAYTON        SUNNY     65  55  68 N18G25    30.06R
$$
MNZ065>067-074>077-082>085-091>093-070100-
   South Central Minnesota

CITY           SKY/WX    TMP DP  RH WIND       PRES   REMARKS
MANKATO        CLOUDY    72  57  60 N12       29.97R
NEW ULM        SUNNY     70  54  56 N10G23    29.99R
ST JAMES       MOSUNNY   72  55  56 NW18G26   30.00R
FAIRMONT       CLOUDY    72  55  56 N16       29.98R
GLENCOE        SUNNY     71  56  58 NW16G23   29.97R
FARIBAULT      MOSUNNY   68  61  77 VRB6      29.96S
OWATONNA       SUNNY     70  57  64 N3        29.96R HAZE
WASECA           N/A     68  59  73 N7        29.97S HAZE
ALBERT LEA     SUNNY     70  59  68 N7G17     29.95S HAZE
$$
MNZ078>079-086>088-094>096-070100-
   Southeast Minnesota

CITY           SKY/WX    TMP DP  RH WIND       PRES   REMARKS
ROCHESTER      CLOUDY    66  58  75 N15       29.94S SMOKE
6HR MIN TEMP:  66; 6HR MAX TEMP:  77; 6HR PCP:  0.15;

RED WING       SUNNY     70  57  64 N7        29.92F HAZE
STANTON        CLOUDY    70  59  68 N7        29.94S
DODGE CENTER     N/A     66  59  77 N13       29.95S HAZE
WINONA         CLOUDY    70  59  68 N8G18     29.91S HAZE
AUSTIN         SUNNY     70  57  64 N14G20    29.94R HAZE
PRESTON          N/A     65  57  75 N16G30    29.92S HAZE
$$
ABBREVIATIONS USED IN REMARKS
   TC - TEMPERATURES IN CELSIUS
  WCI - WIND CHILL INDEX
   HX - HEAT INDEX
  VSB - VISIBILITY
$$



USA.gov is the U.S. government's official web portal to all federal, state and local government web resources and services.